Weather History for Fairbanks Eiels, AK

Change the Weather History Date:

Thursday, September 13, 2012

  Actual Average Record
Temperature  
Mean Temperature 39 °F -  
Max Temperature 52 °F 56 °F 74 °F (1965)
Min Temperature 27 °F 38 °F 26 °F (2003)
Degree Days  
Heating Degree Days 26    
Moisture  
Dew Point 28 °F    
Average Humidity 69    
Maximum Humidity 90    
Minimum Humidity 39    
Precipitation  
Precipitation 0.00 in - - ()
Sea Level Pressure  
Sea Level Pressure 29.83 in    
Wind  
Wind Speed 3 mph (South)    
Max Wind Speed 7 mph    
Max Gust Speed -    
Visibility 10 miles    
Events      
Averages and records for this station are not official NWS values.
T = Trace of Precipitation, MM = Missing Value Source: NWS Daily Summary

Daily Weather History Graph

Daily Weather History Graph

Search for Another Location

Airport:

Trip Planner

Search our weather history database for the weather conditions in past years. The results will help you decide how hot, cold, wet, or windy it might be!

Date:

Astronomy

Sep. 13, 2012 Rise Set
Actual Time 7:06 AM AKDT 8:19 PM AKDT
Civil Twilight 6:16 AM AKDT 9:09 PM AKDT
Nautical Twilight 5:11 AM AKDT 10:13 PM AKDT
Astronomical Twilight 3:49 AM AKDT 11:33 PM AKDT
Moon 3:57 AM AKDT (9/13) 7:10 PM AKDT (9/13)
Length of Visible Light 14h 53m
Length of Day
13h 12m
Waning Crescent, 6% of the Moon is Illuminated
Sep 13
Waning Crescent
Sep 15
New
Sep 22
First Quarter
Sep 29
Full
Oct 7
Last Quarter

Hourly Weather History & Observations

Time (AKDT) Temp. Windchill Dew Point Humidity Pressure Visibility Wind Dir Wind Speed Gust Speed Precip Events Conditions
12:55 AM 36.7 °F 31.2 °F 31.6 °F 82% 29.78 in 10.0 mi SSE 6.9 mph - N/A   Overcast
1:55 AM 35.1 °F 31.0 °F 30.2 °F 82% 29.79 in 10.0 mi SSE 4.6 mph - N/A   Overcast
2:55 AM 34.0 °F 29.8 °F 30.0 °F 85% 29.81 in 10.0 mi South 4.6 mph - N/A   Overcast
3:55 AM 32.7 °F - 29.1 °F 87% 29.81 in 10.0 mi Calm Calm - N/A   Overcast
4:55 AM 35.1 °F 31.0 °F 28.8 °F 78% 29.82 in 10.0 mi SSW 4.6 mph - N/A   Overcast
5:55 AM 32.4 °F - 27.3 °F 82% 29.83 in 10.0 mi Calm Calm - N/A   Clear
6:55 AM 28.9 °F - 26.2 °F 90% 29.85 in 10.0 mi Calm Calm - N/A   Overcast
7:55 AM 27.3 °F 20.9 °F 24.8 °F 90% 29.86 in 10.0 mi South 5.8 mph - N/A   Mostly Cloudy
8:55 AM 32.5 °F - 28.8 °F 86% 29.86 in 10.0 mi Calm Calm - N/A   Clear
9:55 AM 35.8 °F - 28.4 °F 75% 29.86 in 10.0 mi Calm Calm - N/A   Mostly Cloudy
10:55 AM 38.1 °F 35.7 °F 29.3 °F 71% 29.87 in 10.0 mi South 3.5 mph - N/A   Partly Cloudy
11:55 AM 40.3 °F - 30.0 °F 67% 29.87 in 10.0 mi Calm Calm - N/A   Overcast
12:55 PM 45.3 °F - 30.4 °F 56% 29.86 in 10.0 mi Calm Calm - N/A   Mostly Cloudy
1:55 PM 47.3 °F - 29.8 °F 51% 29.86 in 10.0 mi Calm Calm - N/A   Scattered Clouds
2:55 PM 48.4 °F - 28.2 °F 46% 29.84 in 10.0 mi WSW 4.6 mph - N/A   Overcast
3:55 PM 50.9 °F - 27.3 °F 40% 29.83 in 10.0 mi SW 3.5 mph - N/A   Clear
4:55 PM 51.6 °F - 27.5 °F 39% 29.82 in 10.0 mi SE 4.6 mph - N/A   Mostly Cloudy
5:55 PM 50.0 °F - 25.9 °F 39% 29.81 in 10.0 mi West 4.6 mph - N/A   Clear
6:55 PM 48.6 °F - 27.1 °F 43% 29.81 in 10.0 mi Calm Calm - N/A   Overcast
7:55 PM 43.9 °F - 29.8 °F 58% 29.81 in 10.0 mi Calm Calm - N/A   Partly Cloudy
8:55 PM 36.5 °F - 28.4 °F 72% 29.81 in 10.0 mi Calm Calm - N/A   Clear
9:55 PM 35.8 °F - 27.9 °F 73% 29.81 in 10.0 mi Calm Calm - N/A   Clear
10:55 PM 32.5 °F - 25.7 °F 76% 29.81 in 10.0 mi Calm Calm - N/A   Clear
11:55 PM 29.8 °F 26.3 °F 24.8 °F 81% 29.80 in 10.0 mi SE 3.5 mph - N/A   Clear